Station MRCP1 - 8540433 - Marcus Hook, PA Image indicating link to RSS feed of recent meteorological observations for station MRCP1


Conditions at MRCP1 as of
(3:30 pm EDT)
1930 GMT on 05/24/2024:
     

Click on the graph icon in the table below to see a time series plot of the last five days of that observation.

5-day plot - Atmospheric Pressure Atmospheric Pressure (PRES):29.80 in
5-day plot - Air Temperature Air Temperature (ATMP): 79.9 °F
5-day plot - Water Temperature Water Temperature (WTMP): 68.9 °F
NOS Water Level Observation Network Water Level
Previous observations
TIME
(EDT)
5-day plot - Wind Direction
WDIR
 
5-day plot - Wind Speed
WSPD
kts
5-day plot - Wind Gust
GST
kts
5-day plot - Wave Height
WVHT
ft
5-day plot - Dominant Wave Period
DPD
sec
5-day plot - Average Wave Period
APD
sec
5-day plot - Mean Wave Direction
MWD
 
5-day plot - Atmospheric Pressure
PRES
in
5-day plot - Pressure Tendency
PTDY
in
5-day plot - Air Temperature
ATMP
°F
5-day plot - Water Temperature
WTMP
°F
5-day plot - Dew Point
DEWP
°F
5-day plot - Salinity
SAL
psu
5-day plot - Visibility
VIS
nmi
5-day plot - Tide (above MLLW)
TIDE
ft
2024-05-24 03:24 pm-------29.81- 80.1 69.3----
2024-05-24 03:18 pm-------29.81- 77.2 69.4----
2024-05-24 03:12 pm-------29.81- 78.3 69.3----
2024-05-24 03:06 pm-------29.81- 81.9 69.3----
2024-05-24 03:00 pm-------29.81-0.04 81.1 69.3----
2024-05-24 02:54 pm-------29.81- 79.7 69.3----
2024-05-24 02:48 pm-------29.81- 80.4 69.3----
2024-05-24 02:42 pm-------29.81- 80.1 69.3----
2024-05-24 02:36 pm-------29.81- 79.9 69.3----
2024-05-24 02:30 pm-------29.81- 79.2 69.1----
2024-05-24 02:24 pm-------29.81- 81.3 68.9----
2024-05-24 02:18 pm-------29.82- 80.2 69.1----
2024-05-24 02:12 pm-------29.82- 80.1 69.1----
2024-05-24 02:06 pm-------29.82- 80.2 69.3----
2024-05-24 02:00 pm-------29.82-0.05 81.7 69.8----
2024-05-24 01:54 pm-------29.83- 79.9 69.4----
2024-05-24 01:48 pm-------29.83- 80.2 69.1----
2024-05-24 01:42 pm-------29.83- 77.7 69.1----
2024-05-24 01:36 pm-------29.83- 79.9 69.1----
2024-05-24 01:30 pm-------29.83- 81.1 69.3----
2024-05-24 01:24 pm-------29.84- 79.7 69.3----
2024-05-24 01:18 pm-------29.84- 80.8 69.3----
2024-05-24 01:12 pm-------29.84- 80.2 69.1----
2024-05-24 01:06 pm-------29.84- 80.2 69.1----
2024-05-24 01:00 pm-------29.85-0.03 79.5 68.9----
2024-05-24 12:54 pm-------29.84- 80.1 68.9----
2024-05-24 12:48 pm-------29.84- 81.0 68.9----
2024-05-24 12:42 pm-------29.85- 80.2 69.3----
2024-05-24 12:36 pm-------29.85- 79.9 69.8----
2024-05-24 12:30 pm-------29.85- 79.2 69.6----
2024-05-24 12:24 pm-------29.85- 79.5 69.3----
2024-05-24 12:18 pm-------29.85- 79.7 69.1----
2024-05-24 12:12 pm-------29.85- 79.3 68.9----
2024-05-24 12:06 pm-------29.85- 79.7 69.1----
2024-05-24 12:00 pm-------29.85-0.02 79.9 69.3----
2024-05-24 11:54 am-------29.85- 80.2 69.4----
2024-05-24 11:48 am-------29.85- 79.2 69.4----
2024-05-24 11:42 am-------29.86- 79.0 69.6----
2024-05-24 11:36 am-------29.86- 79.3 69.4----
2024-05-24 11:30 am-------29.86- 79.2 69.6----
2024-05-24 11:24 am-------29.86- 78.1 69.4----
2024-05-24 11:18 am-------29.86- 77.7 69.4----
2024-05-24 11:12 am-------29.87- 77.5 69.4----
2024-05-24 11:06 am-------29.87- 78.1 69.6----
2024-05-24 11:00 am-------29.87-0.01 77.9 69.4----
2024-05-24 10:54 am-------29.87- 77.4 69.4----
2024-05-24 10:48 am-------29.87- 76.3 69.6----
2024-05-24 10:42 am-------29.87- 75.0 69.6----
2024-05-24 10:36 am-------29.87- 75.4 69.3----
2024-05-24 10:30 am-------29.87- 75.2 68.9----
2024-05-24 10:24 am-------29.87- 75.7 69.1----
2024-05-24 10:18 am-------29.88- 75.0 69.1----
2024-05-24 10:12 am-------29.88- 75.6 69.3----
2024-05-24 10:06 am-------29.88- 75.4 69.1----
2024-05-24 10:00 am-------29.88+0.01 77.9 68.9----
2024-05-24 09:54 am-------29.88- 77.7 68.7----
2024-05-24 09:48 am-------29.88- 77.7 68.7----
2024-05-24 09:42 am-------29.88- 77.4 68.9----
2024-05-24 09:36 am-------29.88- 77.5 68.7----
2024-05-24 09:30 am-------29.88- 77.4 68.5----
2024-05-24 09:24 am-------29.88- 77.0 68.5----
2024-05-24 09:18 am-------29.88- 76.6 68.4----
2024-05-24 09:12 am-------29.88- 76.3 68.5----
2024-05-24 09:06 am-------29.88- 75.7 68.5----
2024-05-24 09:00 am-------29.88+0.02 75.7 68.4----
2024-05-24 08:54 am-------29.88- 75.0 68.5----
2024-05-24 08:48 am-------29.88- 74.7 68.2----
2024-05-24 08:42 am-------29.88- 74.1 68.2----
2024-05-24 08:36 am-------29.88- 74.1 68.2----
2024-05-24 08:30 am-------29.88- 73.6 68.2----
2024-05-24 08:24 am-------29.88- 73.2 68.2----
2024-05-24 08:18 am-------29.88- 72.9 68.2----
2024-05-24 08:12 am-------29.88- 72.7 68.2----
2024-05-24 08:06 am-------29.88- 72.7 68.2----
2024-05-24 08:00 am-------29.88+0.04 72.3 68.2----
2024-05-24 07:54 am-------29.88- 72.1 68.0----
2024-05-24 07:48 am-------29.88- 72.0 68.0----
2024-05-24 07:42 am-------29.87- 71.8 68.0----
2024-05-24 07:36 am-------29.87- 71.6 68.0----
2024-05-24 07:30 am-------29.87- 71.2 68.0----
2024-05-24 07:24 am-------29.87- 70.9 68.2----
2024-05-24 07:18 am-------29.87- 70.5 68.2----
2024-05-24 07:12 am-------29.87- 70.0 68.2----
2024-05-24 07:06 am-------29.87- 69.4 68.0----
2024-05-24 07:00 am-------29.87+0.02 69.1 68.0----
2024-05-24 06:54 am-------29.87- 69.3 68.0----
2024-05-24 06:48 am-------29.86- 69.3 68.0----
2024-05-24 06:42 am-------29.86- 69.4 68.0----
2024-05-24 06:36 am-------29.86- 68.9 68.0----
2024-05-24 06:30 am-------29.86- 68.5 68.0----
2024-05-24 06:24 am-------29.86- 68.4 68.0----
2024-05-24 06:18 am-------29.86- 68.2 68.0----
2024-05-24 06:12 am-------29.86- 68.0 68.0----
2024-05-24 06:06 am-------29.86- 68.2 68.0----
2024-05-24 06:00 am-------29.86+0.00 68.0 68.0----
2024-05-24 05:54 am-------29.85- 67.8 68.0----
2024-05-24 05:48 am-------29.85- 67.8 68.0----
2024-05-24 05:42 am-------29.85- 67.6 68.2----
2024-05-24 05:36 am-------29.85- 67.3 68.4----
2024-05-24 05:30 am-------29.84- 67.5 68.9----
2024-05-24 05:24 am-------29.84- 67.5 68.4----
2024-05-24 05:18 am-------29.84- 67.5 68.5----
2024-05-24 05:12 am-------29.84- 67.8 68.7----
2024-05-24 05:06 am-------29.84- 67.8 68.9----
2024-05-24 05:00 am-------29.84-0.02 68.0 68.5----
2024-05-24 04:54 am-------29.84- 68.0 68.7----
2024-05-24 04:48 am-------29.84- 68.0 68.7----
2024-05-24 04:42 am-------29.84- 68.0 68.9----
2024-05-24 04:36 am-------29.84- 68.2 68.7----
2024-05-24 04:30 am-------29.84- 68.0 68.5----
2024-05-24 04:24 am-------29.84- 68.0 68.7----
2024-05-24 04:18 am-------29.84- 68.0 68.5----
2024-05-24 04:12 am-------29.84- 68.2 68.5----
2024-05-24 04:06 am-------29.85- 68.0 68.5----
2024-05-24 04:00 am-------29.85-0.03 68.0 68.9----
2024-05-24 03:54 am-------29.85- 68.0 68.9----
2024-05-24 03:48 am-------29.85- 67.8 68.7----
2024-05-24 03:42 am-------29.85- 67.8 68.7----
2024-05-24 03:36 am-------29.85- 68.0 68.7----
2024-05-24 03:30 am-------29.84- 68.4 68.7----
2024-05-24 03:24 am-------29.85- 68.5 68.7----
2024-05-24 03:18 am-------29.85- 68.5 68.5----
2024-05-24 03:12 am-------29.85- 68.4 68.5----
2024-05-24 03:06 am-------29.85- 68.5 68.5----
2024-05-24 03:00 am-------29.85-0.03 68.4 68.4----
2024-05-24 02:54 am-------29.85- 68.5 68.2----
2024-05-24 02:48 am-------29.85- 68.5 68.0----
2024-05-24 02:42 am-------29.85- 68.7 68.0----
2024-05-24 02:36 am-------29.85- 68.9 68.0----
2024-05-24 02:30 am-------29.85- 68.9 68.0----
2024-05-24 02:24 am-------29.85- 68.7 68.0----
2024-05-24 02:18 am-------29.85- 68.7 68.0----
2024-05-24 02:12 am-------29.85- 68.9 68.2----
2024-05-24 02:06 am-------29.86- 68.7 68.2----
2024-05-24 02:00 am-------29.86-0.02- 68.0----
2024-05-24 01:54 am-------29.86-- 68.0----
2024-05-24 01:48 am-------29.86- 68.7 68.0----
2024-05-24 01:42 am-------29.86- 68.7 68.0----
2024-05-24 01:36 am-------29.86- 68.7 68.0----
2024-05-24 01:30 am-------29.87- 68.9 68.0----
2024-05-24 01:24 am-------29.87- 69.1 68.0----
2024-05-24 01:18 am-------29.87- 69.1 68.0----
2024-05-24 01:12 am-------29.87- 69.4 68.0----
2024-05-24 01:06 am-------29.87- 69.4 68.2----
2024-05-24 01:00 am-------29.87-0.01 69.1 68.2----
2024-05-24 12:54 am-------29.87- 69.1 68.2----
2024-05-24 12:48 am-------29.87-- 68.2----
2024-05-24 12:42 am-------29.87-- 68.2----
2024-05-24 12:36 am-------29.87-- 68.2----
2024-05-24 12:30 am-------29.88- 70.3 68.2----
2024-05-24 12:24 am-------29.88- 70.5 68.2----
2024-05-24 12:18 am-------29.88- 70.7 68.2----
2024-05-24 12:12 am-------29.88- 71.1 68.4----
2024-05-24 12:06 am-------29.88- 70.9 68.2----
2024-05-24 12:00 am-------29.88+0.01 70.7 68.4----
2024-05-23 11:54 pm-------29.88- 70.3 68.2----
2024-05-23 11:48 pm-------29.88- 70.0 68.2----
2024-05-23 11:42 pm-------29.88- 69.8 68.2----
2024-05-23 11:36 pm-------29.88- 70.0 68.2----
2024-05-23 11:30 pm-------29.88- 70.3 68.2----
2024-05-23 11:24 pm-------29.88- 70.3 68.2----
2024-05-23 11:18 pm-------29.88- 70.9 68.2----
2024-05-23 11:12 pm-------29.88- 70.7 68.2----
2024-05-23 11:06 pm-------29.88- 71.1 68.2----
2024-05-23 11:00 pm-------29.88+0.01 71.1 68.2----
2024-05-23 10:54 pm-------29.88- 71.1 68.2----
2024-05-23 10:48 pm-------29.88- 71.4 68.2----
2024-05-23 10:42 pm-------29.88- 72.1 68.2----
2024-05-23 10:36 pm-------29.88- 72.1 68.2----
2024-05-23 10:30 pm-------29.88- 72.1 68.2----
2024-05-23 10:24 pm-------29.88- 72.3 68.2----
2024-05-23 10:18 pm-------29.88- 72.3 68.4----
2024-05-23 10:12 pm-------29.88- 72.3 68.4----
2024-05-23 10:06 pm-------29.88- 72.7 68.4----
2024-05-23 10:00 pm-------29.88+0.02 72.9 68.4----
2024-05-23 09:54 pm-------29.88- 72.9 68.4----
2024-05-23 09:48 pm-------29.88- 72.9 68.4----
2024-05-23 09:42 pm-------29.87- 72.9 68.4----
2024-05-23 09:36 pm-------29.87- 72.9 68.4----
2024-05-23 09:30 pm-------29.87- 72.9 68.4----
2024-05-23 09:24 pm-------29.87- 73.2 68.5----
2024-05-23 09:18 pm-------29.87- 73.4 68.5----
2024-05-23 09:12 pm-------29.87- 73.6 68.5----
2024-05-23 09:06 pm-------29.87- 73.0 68.5----
2024-05-23 09:00 pm-------29.86+0.00 73.2 68.5----
2024-05-23 08:54 pm-------29.86- 73.4 68.5----
2024-05-23 08:48 pm-------29.86- 73.8 68.5----
2024-05-23 08:42 pm-------29.86- 74.3 68.4----
2024-05-23 08:36 pm-------29.86- 74.1 68.5----
2024-05-23 08:30 pm-------29.86- 74.1 69.4----
2024-05-23 08:24 pm-------29.86- 74.1 68.5----
2024-05-23 08:18 pm-------29.86- 73.9 68.4----
2024-05-23 08:12 pm-------29.86- 74.1 68.4----
2024-05-23 08:06 pm-------29.86- 74.3 68.4----
2024-05-23 08:00 pm-------29.87+0.00 73.9 68.4----
2024-05-23 07:54 pm-------29.86- 74.3 68.5----
2024-05-23 07:48 pm-------29.87- 74.7 68.5----
2024-05-23 07:42 pm-------29.87- 74.3 68.5----
2024-05-23 07:36 pm-------29.87- 74.1 68.5----
2024-05-23 07:30 pm-------29.87- 74.8 68.5----
2024-05-23 07:24 pm-------29.86- 75.2 68.4----
2024-05-23 07:18 pm-------29.86- 75.4 68.4----
2024-05-23 07:00 pm-------29.86-0.01 75.7 68.4----
2024-05-23 06:54 pm-------29.86- 75.6 68.5----
2024-05-23 06:48 pm-------29.86- 75.6 68.9----
2024-05-23 06:42 pm-------29.86- 75.2 68.5----
2024-05-23 06:36 pm-------29.86- 75.6 68.4----
2024-05-23 06:30 pm-------29.86- 76.3 68.4----
2024-05-23 06:24 pm-------29.86- 75.7 68.4----
2024-05-23 06:18 pm-------29.86- 75.4 68.4----
2024-05-23 06:12 pm-------29.86- 73.9 68.4----
2024-05-23 06:06 pm-------29.86- 74.8 68.5----
2024-05-23 06:00 pm-------29.87-0.03 74.8 68.4----
2024-05-23 05:54 pm-------29.87- 74.8 68.2----
2024-05-23 05:48 pm-------29.87- 74.8 68.2----
2024-05-23 05:42 pm-------29.87- 74.3 68.2----
2024-05-23 05:36 pm-------29.87- 75.0 68.7----
2024-05-23 05:30 pm-------29.87- 76.1 68.4----
2024-05-23 05:24 pm-------29.87- 74.5 68.5----
2024-05-23 05:18 pm-------29.87- 75.4 68.5----
2024-05-23 05:12 pm-------29.88- 75.2 68.2----
2024-05-23 05:06 pm-------29.88- 73.9 68.2----
2024-05-23 05:00 pm-------29.87-0.03 75.7 68.4----
2024-05-23 04:54 pm-------29.87- 75.4 68.4----
2024-05-23 04:48 pm-------29.87- 74.5 68.4----
2024-05-23 04:42 pm-------29.87- 76.6 68.4----
2024-05-23 04:36 pm-------29.87- 78.3 68.5----
2024-05-23 04:30 pm-------29.87- 77.0 68.5----
2024-05-23 04:24 pm-------29.87- 75.7 70.2----
2024-05-23 04:18 pm-------29.88- 75.4 70.0----
2024-05-23 04:12 pm-------29.88- 74.8 70.7----
2024-05-23 04:06 pm-------29.88- 75.0 70.2----
2024-05-23 04:00 pm-------29.88-0.03 74.5 68.4----
2024-05-23 03:54 pm-------29.88- 75.0 68.2----